Time,TemperatureF,DewpointF,PressureIn,WindDirection,WindDirectionDegrees,WindSpeedMPH,WindSpeedGustMPH,Humidity,HourlyPrecipIn,Conditions,Clouds,dailyrainin,SoftwareType,DateUTC
2013-10-12 00:14:00,45.0,44.0,30.07,ENE,76,0.0,-999.0,95,-99.99,,,-99.99,,2013-10-12 04:14:00,
2013-10-12 00:24:00,45.0,43.0,30.07,ENE,78,1.0,-999.0,94,-99.99,,,-99.99,,2013-10-12 04:24:00,
2013-10-12 00:44:00,45.0,43.0,30.07,ENE,76,2.0,-999.0,93,-99.99,,,-99.99,,2013-10-12 04:44:00,
2013-10-12 00:54:00,46.0,44.0,30.07,ENE,78,1.0,-999.0,91,-99.99,,,-99.99,,2013-10-12 04:54:00,
2013-10-12 01:13:00,45.0,42.0,30.07,ENE,78,1.0,-999.0,90,-99.99,,,-99.99,,2013-10-12 05:13:00,
2013-10-12 01:23:00,45.0,42.0,30.07,ENE,76,1.0,-999.0,90,-99.99,,,-99.99,,2013-10-12 05:23:00,
2013-10-12 01:43:00,44.0,41.0,30.07,ENE,78,2.0,-999.0,90,-99.99,,,-99.99,,2013-10-12 05:43:00,
2013-10-12 01:52:00,44.0,41.0,30.07,ENE,76,1.0,-999.0,90,-99.99,,,-99.99,,2013-10-12 05:52:00,
2013-10-12 02:12:00,44.0,41.0,30.07,ENE,76,1.0,-999.0,90,-99.99,,,-99.99,,2013-10-12 06:12:00,
2013-10-12 02:22:00,44.0,41.0,30.08,ENE,76,0.0,-999.0,89,-99.99,,,-99.99,,2013-10-12 06:22:00,
2013-10-12 02:42:00,43.0,40.0,30.08,ENE,76,0.0,-999.0,89,-99.99,,,-99.99,,2013-10-12 06:42:00,
2013-10-12 02:52:00,43.0,40.0,30.08,ENE,76,0.0,-999.0,90,-99.99,,,-99.99,,2013-10-12 06:52:00,
2013-10-12 03:12:00,43.0,41.0,30.08,ENE,78,0.0,-999.0,91,-99.99,,,-99.99,,2013-10-12 07:12:00,
2013-10-12 03:22:00,43.0,41.0,30.08,ENE,76,0.0,-999.0,92,-99.99,,,-99.99,,2013-10-12 07:22:00,
2013-10-12 03:42:00,42.0,40.0,30.08,ENE,78,0.0,-999.0,92,-99.99,,,-99.99,,2013-10-12 07:42:00,
2013-10-12 03:52:00,42.0,40.0,30.08,ENE,76,0.0,-999.0,93,-99.99,,,-99.99,,2013-10-12 07:52:00,
2013-10-12 04:12:00,43.0,41.0,30.09,ENE,78,0.0,-999.0,93,-99.99,,,-99.99,,2013-10-12 08:12:00,
2013-10-12 04:22:00,42.0,40.0,30.08,ENE,76,0.0,-999.0,93,-99.99,,,-99.99,,2013-10-12 08:22:00,
2013-10-12 04:42:00,42.0,40.0,30.09,ENE,76,1.0,-999.0,93,-99.99,,,-99.99,,2013-10-12 08:42:00,
2013-10-12 04:52:00,42.0,40.0,30.09,ENE,78,1.0,-999.0,93,-99.99,,,-99.99,,2013-10-12 08:52:00,
2013-10-12 05:11:00,43.0,41.0,30.10,East,100,1.0,-999.0,93,-99.99,,,-99.99,,2013-10-12 09:11:00,
2013-10-12 05:22:00,43.0,41.0,30.10,ESE,112,1.0,-999.0,92,-99.99,,,-99.99,,2013-10-12 09:22:00,
2013-10-12 05:43:00,43.0,40.0,30.10,ESE,112,1.0,-999.0,90,-99.99,,,-99.99,,2013-10-12 09:43:00,
2013-10-12 05:54:00,43.0,40.0,30.11,ESE,112,1.0,-999.0,89,-99.99,,,-99.99,,2013-10-12 09:54:00,
2013-10-12 06:12:00,43.0,40.0,30.11,ESE,112,2.0,-999.0,90,-99.99,,,-99.99,,2013-10-12 10:12:00,
2013-10-12 06:23:00,44.0,41.0,30.11,ESE,112,2.0,-999.0,88,-99.99,,,-99.99,,2013-10-12 10:23:00,
2013-10-12 06:42:00,44.0,39.0,30.11,ESE,121,2.0,-999.0,84,-99.99,,,-99.99,,2013-10-12 10:42:00,
2013-10-12 06:52:00,44.0,39.0,30.13,ESE,121,1.0,-999.0,82,-99.99,,,-99.99,,2013-10-12 10:52:00,
2013-10-12 07:12:00,43.0,38.0,30.14,ESE,121,0.0,-999.0,83,-99.99,,,-99.99,,2013-10-12 11:12:00,
2013-10-12 07:22:00,42.0,38.0,30.14,ESE,121,1.0,-999.0,84,-99.99,,,-99.99,,2013-10-12 11:22:00,
2013-10-12 07:42:00,42.0,38.0,30.14,ESE,121,1.0,-999.0,86,-99.99,,,-99.99,,2013-10-12 11:42:00,
2013-10-12 07:52:00,41.0,37.0,30.15,ESE,121,1.0,-999.0,87,-99.99,,,-99.99,,2013-10-12 11:52:00,
2013-10-12 08:11:00,41.0,38.0,30.16,ESE,121,0.0,-999.0,88,-99.99,,,-99.99,,2013-10-12 12:11:00,
2013-10-12 08:22:00,42.0,39.0,30.16,ESE,121,0.0,-999.0,89,-99.99,,,-99.99,,2013-10-12 12:22:00,
2013-10-12 08:42:00,44.0,40.0,30.16,ESE,121,0.0,-999.0,87,-99.99,,,-99.99,,2013-10-12 12:42:00,
2013-10-12 08:52:00,46.0,42.0,30.17,ESE,121,1.0,-999.0,85,-99.99,,,-99.99,,2013-10-12 12:52:00,
2013-10-12 09:11:00,49.0,43.0,30.17,ESE,121,1.0,-999.0,81,-99.99,,,-99.99,,2013-10-12 13:11:00,
2013-10-12 09:22:00,51.0,43.0,30.16,ESE,121,1.0,-999.0,74,-99.99,,,-99.99,,2013-10-12 13:22:00,
2013-10-12 11:11:00,63.0,45.0,30.16,ESE,121,4.0,-999.0,52,-99.99,,,-99.99,,2013-10-12 15:11:00,
2013-10-12 11:22:00,64.0,45.0,30.16,ESE,110,4.0,-999.0,51,-99.99,,,-99.99,,2013-10-12 15:22:00,
2013-10-12 11:43:00,65.0,46.0,30.16,SSE,168,4.0,-999.0,50,-99.99,,,-99.99,,2013-10-12 15:43:00,
2013-10-12 11:54:00,65.0,46.0,30.16,ESE,116,6.0,-999.0,51,-99.99,,,-99.99,,2013-10-12 15:54:00,
2013-10-12 12:13:00,65.0,46.0,30.16,ESE,116,4.0,-999.0,51,-99.99,,,-99.99,,2013-10-12 16:13:00,
2013-10-12 12:23:00,65.0,46.0,30.16,SE,140,4.0,-999.0,51,-99.99,,,-99.99,,2013-10-12 16:23:00,
2013-10-12 12:43:00,66.0,47.0,30.16,NE,47,5.0,-999.0,51,-99.99,,,-99.99,,2013-10-12 16:43:00,
2013-10-12 12:53:00,66.0,48.0,30.16,SE,126,4.0,-999.0,52,-99.99,,,-99.99,,2013-10-12 16:53:00,
2013-10-12 13:13:00,67.0,48.0,30.15,ESE,110,4.0,-999.0,51,-99.99,,,-99.99,,2013-10-12 17:13:00,
2013-10-12 13:23:00,67.0,48.0,30.15,SSE,148,4.0,-999.0,51,-99.99,,,-99.99,,2013-10-12 17:23:00,
2013-10-12 13:34:00,67.0,48.0,30.15,SSE,148,4.0,-999.0,51,-99.99,,,-99.99,,2013-10-12 17:34:00,
2013-10-12 13:42:00,67.0,48.0,30.15,SSE,148,4.0,-999.0,51,-99.99,,,-99.99,,2013-10-12 17:42:00,
2013-10-12 13:53:00,68.0,48.0,30.14,SE,130,4.0,-999.0,49,-99.99,,,-99.99,,2013-10-12 17:53:00,
2013-10-12 14:12:00,68.0,49.0,30.13,NE,34,5.0,-999.0,50,-99.99,,,-99.99,,2013-10-12 18:12:00,
2013-10-12 14:22:00,69.0,51.0,30.13,SE,141,4.0,-999.0,52,-99.99,,,-99.99,,2013-10-12 18:22:00,
2013-10-12 14:42:00,69.0,49.0,30.13,ESE,121,4.0,-999.0,49,-99.99,,,-99.99,,2013-10-12 18:42:00,
2013-10-12 14:52:00,70.0,49.0,30.12,East,82,5.0,-999.0,48,-99.99,,,-99.99,,2013-10-12 18:52:00,
2013-10-12 15:11:00,70.0,49.0,30.12,ESE,114,4.0,-999.0,47,-99.99,,,-99.99,,2013-10-12 19:11:00,
2013-10-12 15:22:00,70.0,48.0,30.13,SE,127,7.0,-999.0,46,-99.99,,,-99.99,,2013-10-12 19:22:00,
2013-10-12 15:42:00,70.0,49.0,30.13,ESE,117,5.0,-999.0,47,-99.99,,,-99.99,,2013-10-12 19:42:00,
2013-10-12 15:52:00,70.0,49.0,30.12,SE,145,6.0,-999.0,47,-99.99,,,-99.99,,2013-10-12 19:52:00,
2013-10-12 16:12:00,70.0,49.0,30.12,SSE,152,4.0,-999.0,48,-99.99,,,-99.99,,2013-10-12 20:12:00,
2013-10-12 16:22:00,70.0,49.0,30.12,ENE,76,6.0,-999.0,47,-99.99,,,-99.99,,2013-10-12 20:22:00,
2013-10-12 16:42:00,70.0,49.0,30.12,SE,145,5.0,-999.0,48,-99.99,,,-99.99,,2013-10-12 20:42:00,
2013-10-12 16:52:00,70.0,49.0,30.12,SE,134,4.0,-999.0,48,-99.99,,,-99.99,,2013-10-12 20:52:00,
2013-10-12 17:11:00,70.0,50.0,30.12,East,90,4.0,-999.0,49,-99.99,,,-99.99,,2013-10-12 21:11:00,
2013-10-12 17:22:00,69.0,49.0,30.12,East,86,5.0,-999.0,49,-99.99,,,-99.99,,2013-10-12 21:22:00,
2013-10-12 17:43:00,69.0,50.0,30.13,SE,136,6.0,-999.0,50,-99.99,,,-99.99,,2013-10-12 21:43:00,
2013-10-12 17:54:00,68.0,49.0,30.13,ESE,103,7.0,-999.0,50,-99.99,,,-99.99,,2013-10-12 21:54:00,
2013-10-12 18:13:00,68.0,50.0,30.13,SE,127,3.0,-999.0,53,-99.99,,,-99.99,,2013-10-12 22:13:00,
2013-10-12 18:24:00,67.0,50.0,30.13,East,92,4.0,-999.0,55,-99.99,,,-99.99,,2013-10-12 22:24:00,
2013-10-12 18:54:00,65.0,50.0,30.14,ESE,113,2.0,-999.0,58,-99.99,,,-99.99,,2013-10-12 22:54:00,
2013-10-12 19:12:00,65.0,50.0,30.14,SE,133,2.0,-999.0,59,-99.99,,,-99.99,,2013-10-12 23:12:00,
2013-10-12 19:22:00,64.0,50.0,30.14,ENE,78,5.0,-999.0,60,-99.99,,,-99.99,,2013-10-12 23:22:00,
2013-10-12 19:42:00,64.0,51.0,30.15,SE,137,4.0,-999.0,62,-99.99,,,-99.99,,2013-10-12 23:42:00,
2013-10-12 19:52:00,63.0,51.0,30.16,SSE,161,3.0,-999.0,64,-99.99,,,-99.99,,2013-10-12 23:52:00,
2013-10-12 20:12:00,62.0,51.0,30.17,SE,145,0.0,-999.0,67,-99.99,,,-99.99,,2013-10-13 00:12:00,
2013-10-12 20:22:00,61.0,50.0,30.17,SE,145,0.0,-999.0,68,-99.99,,,-99.99,,2013-10-13 00:22:00,
2013-10-12 20:42:00,60.0,50.0,30.17,SE,145,0.0,-999.0,70,-99.99,,,-99.99,,2013-10-13 00:42:00,
2013-10-12 20:52:00,59.0,50.0,30.18,ESE,120,1.0,-999.0,73,-99.99,,,-99.99,,2013-10-13 00:52:00,
2013-10-12 21:12:00,58.0,50.0,30.19,SE,143,2.0,-999.0,76,-99.99,,,-99.99,,2013-10-13 01:12:00,
2013-10-12 21:22:00,58.0,50.0,30.19,SE,126,4.0,-999.0,76,-99.99,,,-99.99,,2013-10-13 01:22:00,
2013-10-12 21:42:00,57.0,50.0,30.18,ESE,116,6.0,-999.0,77,-99.99,,,-99.99,,2013-10-13 01:42:00,
2013-10-12 21:52:00,57.0,50.0,30.19,SE,128,7.0,-999.0,78,-99.99,,,-99.99,,2013-10-13 01:52:00,
2013-10-12 22:12:00,56.0,50.0,30.19,SSE,168,5.0,-999.0,79,-99.99,,,-99.99,,2013-10-13 02:12:00,
2013-10-12 22:22:00,56.0,50.0,30.19,SSE,152,5.0,-999.0,80,-99.99,,,-99.99,,2013-10-13 02:22:00,
2013-10-12 22:42:00,55.0,49.0,30.19,SSE,160,4.0,-999.0,81,-99.99,,,-99.99,,2013-10-13 02:42:00,
2013-10-12 22:52:00,55.0,50.0,30.20,SSE,162,5.0,-999.0,82,-99.99,,,-99.99,,2013-10-13 02:52:00,
2013-10-12 23:12:00,54.0,49.0,30.20,SE,144,5.0,-999.0,83,-99.99,,,-99.99,,2013-10-13 03:12:00,
2013-10-12 23:23:00,54.0,49.0,30.21,SSE,160,6.0,-999.0,84,-99.99,,,-99.99,,2013-10-13 03:23:00,
2013-10-12 23:34:00,54.0,49.0,30.21,SSE,160,6.0,-999.0,84,-99.99,,,-99.99,,2013-10-13 03:34:00,
2013-10-12 23:45:00,54.0,49.0,30.21,SSE,160,6.0,-999.0,84,-99.99,,,-99.99,,2013-10-13 03:45:00,
2013-10-12 23:54:00,54.0,49.0,30.21,ESE,106,6.0,-999.0,84,-99.99,,,-99.99,,2013-10-13 03:54:00,